[[{"header":{"parameterUnit":"m.s-1","parameterCategory":1,"la1":30.2991,"la2":30.254,"lo1":-89.0895,"lo2":-89.0444,"dy":0.0017,"dx":0.0017,"nx":28,"ny":28,"refTime":"2024-12-31T03:00:00:Z","depth":0,"parameterNumber":2,"parameterNumberName":"U-component_of_WINDS"},"data":[0,0,0,0,0,0,0,0,0,0,0,0,0,0,0,0,0,0,0,0,0,0,0,0,0,0,0,0,0,0,0,0,0,0,0,0,0,0,0,0,0,0,0,0,0,0,0,0,0,0,0,0,0,0,0,0,0,0,-1.0081,-1.0081,0,-1.0128,-1.0129,-1.0129,-1.0098,-1.0097,-1.0095,-1.0094,-1.0145,-1.0147,-1.015,0,0,0,0,0,0,0,0,0,0,0,0,0,-0.9964,-0.9966,-1.0081,-1.0081,-1.0082,-1.0128,-1.0129,-1.013,-1.0098,-1.0097,-1.0095,-1.0093,-1.0144,-1.0147,-1.015,0,0,0,0,0,0,0,0,0,0,0,0,0,-1.0013,-0.9967,-1.008,-1.0072,-1.0071,-1.0128,-1.0129,-1.013,-1.0099,-1.0097,-1.0094,-1.0092,-1.0143,-1.0147,-1.0151,-1.0219,0,0,-1.0163,-1.0165,0,0,0,0,0,0,0,0,-1.001,-1.0018,-1.0072,-1.0072,-1.0072,-1.0105,-1.0106,-1.016,-1.0099,-1.0089,-1.0094,-1.0091,-1.0133,-1.0138,-1.0152,-1.0221,-1.0224,-1.0163,-1.0166,-1.0168,-1.0169,0,0,0,0,0,0,0,-1.0007,-1.0015,-1.01,-1.0073,-1.0073,-1.0066,-1.0071,-1.0116,-1.0123,-1.0089,-1.0087,-1.0093,-1.0133,-1.0148,-1.0153,-1.0224,-1.0163,-1.0167,-1.0169,-1.0171,-1.0352,-1.0354,0,0,0,0,0,0,-1.0004,-1.0013,-1.0098,-1.0101,-1.0035,-1.007,-1.0075,-1.0097,-1.0122,-1.0124,-1.0095,-1.0091,-1.0142,-1.0148,-1.0154,-1.0236,-1.0168,-1.0171,-1.0174,-1.035,-1.0353,-1.0355,0,0,0,0,0,0,-1.0002,-1.0012,-1.0096,-1.0056,-1.0066,-1.0074,-1.0099,-1.0099,-1.0114,-1.0126,-1.0127,-1.0109,-1.0141,-1.0149,-1.0203,-1.0238,-1.0173,-1.0177,-1.0347,-1.0351,-1.0354,-1.0401,0,0,0,0,0,0,-0.9999,-1.0011,-1.0037,-1.0057,-1.0069,-1.0144,-1.0101,-1.0101,-1.0121,-1.0117,-1.014,-1.0142,-1.014,-1.0197,-1.0207,-1.0242,-1.018,-1.0344,-1.0349,-1.0353,-1.0396,-1.0405,-1.0413,0,0,0,0,0,-0.9994,-1.0049,-1.0039,-1.0049,-1.0101,-1.0146,-1.0153,-1.0149,-1.0124,-1.015,-1.0158,-1.0141,-1.0232,-1.0203,-1.0214,-1.0251,-1.0342,-1.0347,-1.0353,-1.0392,-1.0404,-1.0413,0,0,0,0,0,0,-1.0034,-1.0051,-1.004,-1.0103,-1.0123,-1.014,-1.0174,-1.0161,-1.0189,-1.0184,-1.0178,-1.0184,-1.0241,-1.0251,-1.0218,-1.0318,-1.0283,-1.0291,-1.0309,-1.032,-1.0329,-1.0326,-1.0183,0,0,0,0,0,-1.005,-1.0084,-1.0098,-1.0152,-1.0162,-1.0166,-1.0186,-1.0181,-1.0201,-1.021,-1.0222,-1.0243,-1.0277,-1.0299,-1.033,-1.0397,-1.0402,-1.0427,-1.0436,-1.0443,-1.045,-1.0486,-1.0498,-1.0373,-1.0373,-1.0373,0,0,-1.0083,-1.0097,-1.0119,-1.016,-1.0175,-1.0211,-1.0174,-1.0214,-1.0241,-1.0216,-1.0268,-1.0278,-1.0301,-1.0362,-1.0389,-1.0372,-1.0486,-1.045,-1.0455,-1.0459,-1.0493,-1.0505,-1.0515,-1.0377,-1.0376,-1.0375,0,0,-1.0163,-1.0177,-1.0223,-1.0238,-1.0261,-1.0263,-1.0274,-1.0294,-1.0299,-1.0351,-1.0333,-1.0365,-1.0423,-1.044,-1.0456,-1.0541,-1.0527,-1.0552,-1.0597,-1.0632,-1.0642,-1.0651,-1.0682,-1.0693,-1.0558,-1.0559,-1.0559,0,-1.0202,-1.0255,-1.0249,-1.029,-1.0308,-1.0287,-1.0334,-1.0349,-1.0382,-1.0395,-1.0375,-1.0446,-1.0461,-1.0525,-1.0546,-1.056,-1.0572,-1.055,-1.0641,-1.065,-1.0658,-1.0687,-1.0699,-1.0561,-1.0561,-1.0561,-1.0561,0,-1.0302,-1.0339,-1.0374,-1.0405,-1.0427,-1.0471,-1.0471,-1.0495,-1.0487,-1.0492,-1.0545,-1.0561,-1.0595,-1.0609,-1.0603,-1.0673,-1.0662,-1.0642,-1.0607,-1.0673,-1.07,-1.0711,-1.0566,-1.0565,-1.0564,-1.0563,0,0,-1.041,-1.0435,-1.0448,-1.0462,-1.0485,-1.0514,-1.0557,-1.0589,-1.061,-1.0632,-1.0668,-1.0717,-1.0698,-1.0717,-1.0712,-1.0743,-1.0809,-1.0719,-1.0719,-1.0735,-1.0888,-1.0903,-1.0916,-1.0799,-1.0801,-1.0803,-1.0886,0,-1.0491,-1.0565,-1.056,-1.063,-1.0665,-1.0644,-1.0681,-1.07,-1.0705,-1.0735,-1.074,-1.0775,-1.0747,-1.0758,-1.0787,-1.0795,-1.084,-1.0789,-1.0833,-1.0835,-1.0829,-1.0931,-1.0947,-1.1025,-1.0896,-1.0898,-1.0899,0,-1.0596,-1.0622,-1.0695,-1.0713,-1.0727,-1.0761,-1.079,-1.0819,-1.0839,-1.084,-1.086,-1.085,-1.0894,-1.0856,-1.0916,-1.0882,-1.0899,-1.0905,-1.0908,-1.0913,-1.0872,-1.0939,-1.1049,-1.1061,-1.0916,-1.0915,-1.0914,0,-1.0668,-1.0721,-1.0771,-1.0784,-1.0805,-1.0829,-1.0839,-1.0857,-1.0877,-1.0903,-1.0915,-1.0946,-1.0963,-1.0987,-1.0985,-1.0958,-1.1046,-1.1009,-1.1049,-1.1049,-1.1069,-1.1068,-1.1185,-1.1079,-1.1079,-1.1079,-1.1078,0,-1.076,-1.0806,-1.0804,-1.0835,-1.0886,-1.0879,-1.093,-1.0937,-1.0953,-1.0986,-1.097,-1.1001,-1.0996,-1.1027,-1.1026,-1.1076,-1.1083,-1.1086,-1.1085,-1.1088,-1.1088,-1.11,-1.1095,-1.1082,-1.1081,-1.108,-1.108,0,-1.085,-1.085,-1.0904,-1.0919,-1.0924,-1.0961,-1.0974,-1.1004,-1.1007,-1.1048,-1.1057,-1.1062,-1.1098,-1.1098,-1.1139,-1.1138,-1.1199,-1.1192,-1.1193,-1.1191,-1.1232,-1.1228,-1.1362,-1.1379,-1.1261,-1.1262,-1.1263,0,-1.0909,-1.0944,-1.0962,-1.0983,-1.0994,-1.1027,-1.1047,-1.1041,-1.1063,-1.1088,-1.1115,-1.1148,-1.1176,-1.1233,-1.1241,-1.1272,-1.1266,-1.131,-1.1271,-1.1272,-1.1267,-1.1266,-1.1269,-1.1319,-1.132,-1.1321,-1.1322,0,-1.1014,-1.1012,-1.1041,-1.107,-1.1094,-1.1117,-1.1138,-1.1155,-1.1152,-1.1177,-1.1213,-1.1233,-1.1275,-1.1309,-1.1339,-1.1349,-1.1336,-1.1334,-1.1345,-1.1349,-1.1348,-1.1349,-1.1215,-1.1331,-1.133,-1.133,-1.1329,-1.1329,-1.1091,-1.1121,-1.1139,-1.1171,-1.1186,-1.1206,-1.1234,-1.124,-1.127,-1.1303,-1.1297,-1.1337,-1.1356,-1.1394,-1.1408,-1.1439,-1.1424,-1.1439,-1.1444,-1.1448,-1.1453,-1.1342,-1.1444,-1.1444,-1.1444,-1.1444,-1.1443,0,-1.1196,-1.1206,-1.1236,-1.1265,-1.1291,-1.1274,-1.1296,-1.1319,-1.1355,-1.1373,-1.1399,-1.144,-1.1473,-1.1482,-1.1514,-1.1537,-1.1532,-1.1546,-1.1545,-1.1547,-1.1464,-1.1452,-1.155,-1.155,-1.155,-1.155,-1.155,-1.155,-1.1254,-1.1304,-1.1304,-1.136,-1.137,-1.1409,-1.1423,-1.1441,-1.1455,-1.1502,-1.1528,-1.1534,-1.1549,-1.1581,-1.161,-1.1612,-1.1625,-1.1641,-1.1641,-1.1564,-1.1553,-1.1543,-1.1531,-1.1644,-1.1644,-1.1721,-1.1722,-1.1722]},{"header":{"parameterUnit":"m.s-1","parameterCategory":1,"la1":30.2991,"la2":30.254,"lo1":-89.0895,"lo2":-89.0444,"dy":0.0017,"dx":0.0017,"nx":28,"ny":28,"refTime":"2024-12-31T03:00:00:Z","depth":0,"parameterNumber":3,"parameterNumberName":"V-component_of_WINDS"},"data":[0,0,0,0,0,0,0,0,0,0,0,0,0,0,0,0,0,0,0,0,0,0,0,0,0,0,0,0,0,0,0,0,0,0,0,0,0,0,0,0,0,0,0,0,0,0,0,0,0,0,0,0,0,0,0,0,0,0,-3.7804,-3.7805,0,-3.793,-3.7932,-3.7933,-3.7903,-3.7901,-3.7898,-3.7896,-3.8022,-3.8028,-3.8033,0,0,0,0,0,0,0,0,0,0,0,0,0,-3.7534,-3.7539,-3.7804,-3.7806,-3.7807,-3.793,-3.7932,-3.7934,-3.7903,-3.7901,-3.7898,-3.7895,-3.802,-3.8027,-3.8034,0,0,0,0,0,0,0,0,0,0,0,0,0,-3.7655,-3.7541,-3.7804,-3.7807,-3.7809,-3.793,-3.7932,-3.7934,-3.7904,-3.79,-3.7897,-3.7893,-3.8018,-3.8026,-3.8035,-3.8159,0,0,-3.806,-3.8064,0,0,0,0,0,0,0,0,-3.7648,-3.7665,-3.7805,-3.7807,-3.7809,-3.7897,-3.7883,-3.8009,-3.7905,-3.7868,-3.7896,-3.7892,-3.7983,-3.7994,-3.8026,-3.8165,-3.817,-3.8061,-3.8066,-3.807,-3.8072,0,0,0,0,0,0,0,-3.764,-3.7659,-3.7854,-3.7807,-3.781,-3.7801,-3.7814,-3.7907,-3.7944,-3.7871,-3.7869,-3.7884,-3.7984,-3.8018,-3.8029,-3.8172,-3.8061,-3.8068,-3.8073,-3.8077,-3.8419,-3.8423,0,0,0,0,0,0,-3.763,-3.7652,-3.785,-3.7858,-3.7718,-3.7809,-3.7824,-3.7873,-3.7943,-3.795,-3.7887,-3.7882,-3.8005,-3.8019,-3.8033,-3.8183,-3.807,-3.8078,-3.8082,-3.8415,-3.842,-3.8425,0,0,0,0,0,0,-3.7624,-3.7648,-3.7845,-3.7755,-3.7779,-3.7818,-3.7873,-3.7877,-3.7911,-3.7956,-3.7962,-3.7916,-3.8003,-3.8021,-3.8128,-3.8187,-3.8081,-3.8089,-3.8411,-3.8417,-3.8422,-3.8485,0,0,0,0,0,0,-3.7617,-3.7646,-3.7695,-3.7756,-3.7784,-3.7939,-3.7876,-3.7882,-3.7926,-3.7921,-3.7984,-3.7991,-3.8001,-3.8116,-3.8136,-3.8197,-3.8096,-3.8405,-3.8413,-3.8421,-3.8478,-3.8493,-3.8505,0,0,0,0,0,-3.7607,-3.7707,-3.7697,-3.7721,-3.7846,-3.7943,-3.7958,-3.797,-3.7931,-3.798,-3.8008,-3.7989,-3.8177,-3.8127,-3.815,-3.8214,-3.8402,-3.8411,-3.842,-3.8472,-3.849,-3.8505,0,0,0,0,0,0,-3.765,-3.7715,-3.7705,-3.7828,-3.788,-3.7937,-3.7999,-3.7988,-3.8052,-3.8044,-3.8054,-3.8069,-3.8178,-3.8206,-3.8149,-3.8338,-3.8284,-3.8298,-3.8316,-3.8333,-3.8346,-3.8337,-3.8103,0,0,0,0,0,-3.7674,-3.7749,-3.78,-3.7903,-3.793,-3.796,-3.8003,-3.8007,-3.8061,-3.8083,-3.8119,-3.8172,-3.8243,-3.8289,-3.8357,-3.8482,-3.8495,-3.8537,-3.8551,-3.8562,-3.8574,-3.8642,-3.8661,-3.8455,-3.8455,-3.8454,0,0,-3.7724,-3.7768,-3.7815,-3.7913,-3.7954,-3.803,-3.7979,-3.8061,-3.8118,-3.8095,-3.8199,-3.8227,-3.8286,-3.8403,-3.8456,-3.843,-3.8634,-3.8573,-3.8582,-3.8588,-3.8653,-3.8672,-3.869,-3.8461,-3.846,-3.8459,0,0,-3.7854,-3.7895,-3.7986,-3.8028,-3.8091,-3.811,-3.8132,-3.8191,-3.821,-3.8314,-3.8299,-3.8365,-3.8487,-3.853,-3.8568,-3.8713,-3.8698,-3.8735,-3.8806,-3.8872,-3.8888,-3.8903,-3.8955,-3.8973,-3.8747,-3.8747,-3.8747,0,-3.7908,-3.8022,-3.8033,-3.8118,-3.8161,-3.8145,-3.8236,-3.8276,-3.8358,-3.8388,-3.8358,-3.8511,-3.855,-3.8676,-3.8711,-3.8742,-3.8767,-3.8728,-3.8885,-3.89,-3.8914,-3.8963,-3.8982,-3.8751,-3.8751,-3.875,-3.875,0,-3.8085,-3.8165,-3.823,-3.8311,-3.8362,-3.8449,-3.8472,-3.8522,-3.8521,-3.8543,-3.8649,-3.8695,-3.8772,-3.8802,-3.8802,-3.8928,-3.891,-3.8883,-3.8829,-3.8937,-3.8984,-3.9003,-3.8757,-3.8756,-3.8754,-3.8753,0,0,-3.8246,-3.8332,-3.8355,-3.8392,-3.846,-3.8521,-3.8607,-3.8683,-3.8726,-3.8782,-3.8854,-3.8958,-3.8933,-3.8976,-3.898,-3.9038,-3.9151,-3.9004,-3.9005,-3.9029,-3.9292,-3.9312,-3.9334,-3.9141,-3.9144,-3.9147,-3.9287,0,-3.8382,-3.8535,-3.8547,-3.8684,-3.8758,-3.8743,-3.8818,-3.8868,-3.889,-3.8955,-3.8979,-3.9053,-3.9015,-3.904,-3.9097,-3.9125,-3.9203,-3.9115,-3.9207,-3.921,-3.9193,-3.9359,-3.938,-3.951,-3.9305,-3.9308,-3.9311,0,-3.8561,-3.8624,-3.8769,-3.8828,-3.8859,-3.8926,-3.8996,-3.9059,-3.9114,-3.9126,-3.9175,-3.9171,-3.9258,-3.9201,-3.932,-3.926,-3.9298,-3.9317,-3.9323,-3.9332,-3.9267,-3.9372,-3.9552,-3.9571,-3.9339,-3.9337,-3.9335,0,-3.8664,-3.8785,-3.8887,-3.8919,-3.8989,-3.9037,-3.9068,-3.912,-3.9165,-3.9226,-3.9255,-3.9325,-3.9363,-3.9417,-3.9432,-3.9389,-3.9551,-3.9495,-3.9563,-3.9563,-3.9598,-3.9596,-3.9787,-3.9623,-3.9623,-3.9622,-3.9622,0,-3.8814,-3.8904,-3.8935,-3.8998,-3.9097,-3.9109,-3.9207,-3.9235,-3.9281,-3.9349,-3.934,-3.9403,-3.9419,-3.9485,-3.9497,-3.9594,-3.9611,-3.9623,-3.9625,-3.9624,-3.9623,-3.9649,-3.964,-3.9627,-3.9626,-3.9625,-3.9624,0,-3.8946,-3.897,-3.9081,-3.9139,-3.9155,-3.9226,-3.9275,-3.9335,-3.9356,-3.9441,-3.9462,-3.9495,-3.9572,-3.9593,-3.9685,-3.9693,-3.9807,-3.9801,-3.9789,-3.9789,-3.9856,-3.9849,-4.0071,-4.01,-3.9917,-3.9918,-3.992,0,-3.9041,-3.9109,-3.9174,-3.922,-3.9253,-3.9326,-3.9372,-3.9386,-3.9434,-3.9502,-3.9554,-3.963,-3.9692,-3.9815,-3.9847,-3.9917,-3.9912,-3.9985,-3.9923,-3.9919,-3.9913,-3.9909,-3.9916,-3.9997,-3.9999,-4.0,-4.0002,0,-3.9206,-3.9215,-3.9282,-3.9354,-3.9409,-3.9466,-3.9521,-3.9558,-3.9579,-3.9634,-3.9713,-3.9761,-3.9855,-3.9931,-4.0001,-4.0032,-4.0021,-4.0021,-4.004,-4.004,-4.003,-4.0036,-3.9821,-4.0016,-4.0014,-4.0013,-4.0013,-4.0012,-3.9322,-3.9382,-3.9438,-3.9513,-3.9555,-3.9607,-3.9666,-3.9695,-3.9762,-3.9841,-3.9844,-3.993,-3.9983,-4.0077,-4.0112,-4.0178,-4.0156,-4.0185,-4.0192,-4.0198,-4.0204,-4.002,-4.0191,-4.0191,-4.019,-4.019,-4.019,0,-3.9487,-3.9522,-3.9591,-3.9668,-3.9727,-3.9712,-3.9771,-3.9821,-3.9897,-3.9948,-4.0009,-4.01,-4.0173,-4.0211,-4.0283,-4.0329,-4.0325,-4.0347,-4.0344,-4.0351,-4.022,-4.0196,-4.0349,-4.0349,-4.0349,-4.0349,-4.0349,-4.0349,-3.958,-3.9681,-3.9696,-3.9818,-3.9851,-3.9937,-3.9972,-4.0019,-4.0059,-4.0161,-4.0223,-4.0247,-4.0292,-4.0367,-4.0433,-4.0442,-4.0469,-4.0494,-4.05,-4.0377,-4.0361,-4.0345,-4.0323,-4.05,-4.05,-4.0626,-4.0627,-4.0628]}]]